Location: Observatoire
(46.1952°N, 5.3391°E)
Time: 14:56:39
(UTC+01:00)

Courier 1B - Pass Details

Date: 19 February 2026
Orbit: 962 x 1208 km, 28.3° (Epoch: 5 March)

Event Time Altitude Azimuth Distance (km) Brightness Sun altitude
Rises 20:52:15 0° 232° (SW) 3,904 11.1 -28.5°
Reaches altitude 10° 20:55:53 10° 215° (SW) 2,993 10.2 -29.1°
Enters shadow 20:59:42 18° 184° (S) 2,476 9.5 -29.8°
